Terug naar catalogus

NIMBUS 2 DEB

ActiefLEO
NORAD 24956·DEBRIS·🇺🇸 United States

Gelanceerd May 15, 1966 vanaf Vandenberg Space Force Base

Loading…

Volgende Passages (komende 24 uur)

TLE

VersSource: Space-Track

Epoch: Sep 13, 2026, 12:04 UTC

1 24956U 66040C   26256.50309610  .00001536  00000-0  19364-2 0  9997
2 24956 100.4688  93.6807 0041938 171.8157 244.4123 13.65399307951442

Volg NIMBUS 2 DEB in realtime met AllMySat

Download on the App Store